Tracking 28790 objects as of 19-Apr-2024
HD Live streaming from Space Station
objects crossing your sky now

TABLETSAT AURORA

Track TABLETSAT AURORA now!
10-day predictions
TABLETSAT AURORA is classified as:


NORAD ID: 40017
Int'l Code: 2014-033H
Perigee: 557.0 km
Apogee: 578.2 km
Inclination: 98.1 °
Period: 95.9 minutes
Semi major axis: 6938 km
RCS: Unknown
Launch date: June 19, 2014
Source: Commonwealth of Independent States (former USSR) (CIS)
Launch site: Orenburg, Russia (OREN)

Uplink (MHz):
Downlink (MHz): 435.550/436.100
Beacon (MHz): 437.050
Mode: 9600bps GMSK D-STAR
Call sign:
Status: Inactive

Your satellite tracking list
Your tracking list is empty




NASA's NSSDC Master Catalog

Two Line Element Set (TLE):
1 40017U 14033H   24110.13110863  .00011927  00000-0  90992-3 0  9996
2 40017  98.1228 130.3536 0015335  11.5800 348.5773 15.02084650536111
Source of the keplerian elements: AFSPC